World > North America > United States > New York
Hourly regional weather for Peconic, New YorkPeconic, New York Regional Hourly Weather

Peconic, New York Regional Weather

regional weather peconic, nyHOURLY REGIONAL WEATHER FOR PECONIC, NY
Lat: 41.04N, Lon: 72.46W 
Web Search

If you are on your PC, you can easily pass this page to your phone by scanning the QR Code near the bottom with your camera.

Feedback


°F Click to change Peconic hourly weather to Imperial units.Click to change Peconic hourly weather to Metric units. °C
Peconic Weather Map
UTC Time: 1/21/2022, 20:12
Your Time:

Peconic, NY Regional Weather

Expires:202201212100;;592973
ASUS41 KALY 212010
RWRALY

NEW YORK STATE HOURLY WEATHER ROUNDUP
NATIONAL WEATHER SERVICE ALBANY NY
300 PM EST FRI JAN 21 2022

NOTE: "FAIR" INDICATES FEW OR NO CLOUDS BELOW 12,000 FEET WITH NO
SIGNIFICANT WEATHER AND/OR NO OBSTRUCTIONS TO VISIBILITY.


NYZ032-033-038>043-046>054-057>066-NYZ062>081-082-084-212100-
EAST

  
CITY           SKY/WX    TMP DP  RH WIND       PRES   REMARKS
ALBANY         MOSUNNY   14  -4  44 N8        30.60S WCI   3          
GLENS FALLS    SUNNY      9  -4  55 E6        30.60F WCI  -1          
POUGHKEEPSIE   SUNNY     18  -2  41 N12       30.55S WCI   5          
NEWBURGH       SUNNY     18   0  45 NE7       30.51F WCI   8          
MONTGOMERY     SUNNY     17  -2  43 N9        30.51F WCI   6          
WHITE PLAINS   SUNNY     20   0  41 N14       30.48S WCI   7          
ISLIP          PTSUNNY   24   9  52 NE12      30.49S WCI  13          
NEW YORK CITY  PTSUNNY   22   1  40 N12       30.52S WCI  10          
CENTRAL PARK   MOSUNNY   21   0  39 CALM      30.53S                  
$$


SKY/WX - Weather  TMP - Temperature  DP - Dew Point  RH - Relative Humidity
WIND - Wind Direction/Speed PRES - Barometric Pressure VSB - Visibility
WCI - Wind Chill Index E13G22 Wind - East Wind 13 mph/Gusts of 22 mph